Regional Weather Roundup
Issued by NWS Sioux Falls, SD

Home | Current Version | Previous Version | Text Only | Print | Product List | Glossary On
Versions: 1 2 3 4 5 6 7 8 9 10 11 12 13 14 15 16 17 18 19 20 21 22 23 24 25 26 27 28 29 30 31 32 33 34 35 36 37 38 39 40 41 42 43 44 45 46 47 48 49 50
000
ASUS43 KFSD 110410
RWRFSD

WEATHER ROUNDUP FOR SE SOUTH DAKOTA/SW MINNESOTA/NW IOWA
NATIONAL WEATHER SERVICE SIOUX FALLS SD
1000 PM CST WED FEB 10 2016

NOTE: "FAIR" INDICATES FEW OR NO CLOUDS BELOW 12,000 FEET WITH NO
SIGNIFICANT WEATHER AND OR OBSTRUCTIONS TO VISIBILITY.


SDZ038>040-050-052>070-110500-
SOUTHEAST SOUTH DAKOTA

CITY           SKY/WX    TMP DP  RH WIND       PRES   REMARKS
BROOKINGS      FLURRIES  11   6  81 E10       30.18R WCI  -3
CHAMBERLAIN    CLOUDY    23  20  89 NE5       30.17S WCI  17
HURON          CLOUDY    17  11  77 E6        30.21S WCI   9
MADISON        CLOUDY    10   9  92 E10       30.18R WCI  -3
MITCHELL       CLOUDY    20  14  77 E5        30.21R WCI  13
SIOUX FALLS    CLOUDY    13   7  77 E9        30.19R WCI   1
WINNER         CLOUDY    29  23  78 N14       30.16R WCI  18
YANKTON        CLOUDY    18  12  79 NE9       30.19R WCI   6
$$

MNZ071-072-080-081-089-090-097-098-110500-
SOUTHWEST MINNESOTA

CITY           SKY/WX    TMP DP  RH WIND       PRES   REMARKS
FAIRMONT       CLOUDY     9   1  72 CALM      30.20R
JACKSON        CLOUDY    12   3  67 N8        30.19S WCI   1
LUVERNE        CLOUDY    14   7  73 NE10      30.20R WCI   1
MARSHALL       FLURRIES  13   7  77 N7        30.25R WCI   3
MONTEVIDEO     CLOUDY     9   1  72 CALM      30.28R
PIPESTONE      CLOUDY    12   1  62 NE8       30.18R WCI   1
REDWOOD FALLS  CLOUDY    13   4  67 CALM      30.25R
TRACY          CLOUDY    13   7  76 N5        30.23R WCI   6
WINDOM         CLOUDY    10   3  72 CALM      30.20R
WORTHINGTON    CLOUDY    10   3  72 NE10      30.20R WCI  -3
$$

IAZ001>003-012>014-020>022-031-032-NEZ013-014-SDZ071-110500-
NORTHWEST IOWA

CITY           SKY/WX    TMP DP  RH WIND       PRES   REMARKS
CHEROKEE       CLOUDY    14  10  83 NE8       30.19S WCI   3
DENISON        CLOUDY    16  12  86 NE12      30.15R WCI   3
ESTHERVILLE    CLOUDY    10   3  73 N12       30.19S WCI  -5
LE MARS        CLOUDY    16  14  93 NE9       30.20S WCI   4
ORANGE CITY    CLOUDY    14  10  85 CALM      30.17R
SHELDON        CLOUDY    12   9  85 NE12      30.18R WCI  -2
SIOUX CITY     CLOUDY    19  12  74 E12       30.18S WCI   7
SPENCER        CLOUDY    12   5  73 NE9       30.19R WCI   0
STORM LAKE     CLOUDY    12  10  92 NE13      30.16S WCI  -3
$$

ABBREVIATIONS USED IN REMARKS
   TC - TEMPERATURE IN CELSIUS
  WCI - WIND CHILL INDEX
   HX - HEAT INDEX
  VSB - VISIBILITY




USA.gov is the U.S. government's official web portal to all federal, state and local government web resources and services.